This is the latest recevied weather packets stored in our database for station/object KB7STN. If no packets are shown the sender has not sent any weather packets the latest 10 day(s).
| Time | Temp. | Humidity | Pressure | Rain* | Wind** | Luminosity | Snow |
|---|---|---|---|---|---|---|---|
| 1777734444 | 16.11° C | 28% | 1013.3 hPa | 0 mm | - | - | - |
| 1777734144 | 15.56° C | 29% | 1013.4 hPa | 0 mm | - | - | - |
| 1777733844 | 15° C | 39% | 1013.4 hPa | 0 mm | - | - | - |
| 1777733544 | 15° C | 41% | 1013.4 hPa | 0 mm | - | - | - |
| 1777733244 | 14.44° C | 40% | 1013.4 hPa | 0 mm | - | - | - |
| 1777732944 | 13.89° C | 44% | 1013.4 hPa | 0 mm | - | - | - |
| 1777732644 | 13.89° C | 44% | 1013.5 hPa | 0 mm | - | - | - |
| 1777732344 | 13.33° C | 40% | 1013.4 hPa | 0 mm | - | - | - |
| 1777732044 | 13.33° C | 38% | 1013.4 hPa | 0 mm | - | - | - |
| 1777731744 | 12.78° C | 38% | 1013.4 hPa | 0 mm | - | - | - |
| 1777731444 | 12.78° C | 36% | 1013.5 hPa | 0 mm | - | - | - |
| 1777731144 | 12.22° C | 37% | 1013.4 hPa | 0 mm | - | - | - |
| 1777730844 | 12.22° C | 39% | 1013.5 hPa | 0 mm | - | - | - |
| 1777730544 | 11.67° C | 40% | 1013.5 hPa | 0 mm | - | - | - |
| 1777730244 | 11.11° C | 40% | 1013.4 hPa | 0 mm | - | - | - |
| 1777729945 | 10.56° C | 42% | 1013.5 hPa | 0 mm | - | - | - |
| 1777729644 | 10° C | 43% | 1013.5 hPa | 0 mm | - | - | - |
| 1777729344 | 10° C | 45% | 1013.4 hPa | 0 mm | - | - | - |
| 1777729045 | 9.44° C | 44% | 1013.4 hPa | 0 mm | - | - | - |
| 1777728745 | 8.89° C | 45% | 1013.5 hPa | 0 mm | - | - | - |
| 1777728444 | 8.89° C | 48% | 1013.4 hPa | 0 mm | - | - | - |
| 1777728144 | 8.33° C | 49% | 1013.4 hPa | 0 mm | - | - | - |
| 1777727845 | 7.78° C | 50% | 1013.5 hPa | 0 mm | - | - | - |
| 1777727545 | 7.78° C | 51% | 1013.4 hPa | 0 mm | - | - | - |
| 1777727245 | 7.78° C | 50% | 1013.4 hPa | 0 mm | - | - | - |
* Rain latest hour (hover to see other rain measurements)
** Current wind speed in m/s (hover to see current wind gust speed)